• Processing (Info)

  • MPEC 2013-T18 : 2013 SL30

    The following Minor Planet Electronic Circular may be linked-to from your own Web pages, but must not otherwise be redistributed electronically.

    A form allowing access to any MPEC is at the bottom of this page.


    Read MPEC 2013-T17 Read MPEC 2013-T19


    M.P.E.C. 2013-T18                                Issued 2013 Oct. 3, 19:29 UT
    
         The Minor Planet Electronic Circulars contain information on unusual
             minor planets and routine data on comets.  They are published
       on behalf of Commission 20 of the International Astronomical Union by the
              Minor Planet Center, Smithsonian Astrophysical Observatory,
                              Cambridge, MA 02138, U.S.A.
    
                 Prepared using the Tamkin Foundation Computer Network
    
                                  MPC@CFA.HARVARD.EDU
                URL https://www.minorplanetcenter.net/    ISSN 1523-6714
    
                                       2013 SL30
    
    Observations:
         K13S30L* C2013 09 29.39057 00 29 50.85 -17 52 26.3          19.6 VqET018703
         K13S30L  C2013 09 29.39594 00 29 49.82 -17 52 11.4          19.3 VqET018703
         K13S30L  C2013 09 29.40135 00 29 48.70 -17 51 58.2          19.9 VqET018703
         K13S30L  C2013 09 29.40674 00 29 47.67 -17 51 44.5          20.8 VqET018703
         K13S30L  C2013 09 29.44053 00 29 40.90 -17 50 13.8          19.6 VqET018703
         K13S30L  C2013 09 29.44126 00 29 40.78 -17 50 13.8          19.4 VqET018703
         K13S30L  C2013 09 29.44197 00 29 40.60 -17 50 10.8          19.6 VqET018703
         K13S30L  C2013 09 29.44269 00 29 40.50 -17 50 09.3          19.4 VqET018703
         K13S30L  C2013 09 29.44342 00 29 40.25 -17 50 06.6          19.8 VqET018703
         K13S30L KC2013 09 29.56156 00 29 18.13 -17 44 42.1          18.9 VqET018E23
         K13S30L KC2013 09 29.57545 00 29 15.39 -17 44 05.4          19.6 VqET018E23
         K13S30L KC2013 09 29.58922 00 29 12.59 -17 43 30.8          18.7 VqET018E23
         K13S30L KC2013 09 29.94770100 28 03.35 -17 27 50.7          19.7 VqET018K92
         K13S30L KC2013 09 29.95422300 28 02.05 -17 27 33.6          19.8 VqET018K92
         K13S30L KC2013 09 29.96057800 28 00.80 -17 27 17.0          19.7 VqET018K92
         K13S30L  C2013 09 29.99626 00 27 53.84 -17 26 01.2          20.4 RoET018033
         K13S30L  C2013 09 29.99925 00 27 53.35 -17 25 53.9          20.4 RoET018033
         K13S30L  C2013 09 30.29270 00 26 57.61 -17 13 05.7          19.1 VqET018G96
         K13S30L  C2013 09 30.29437 00 26 57.20 -17 13 02.1          19.1 RcET018854
         K13S30L  C2013 09 30.30083 00 26 56.06 -17 12 44.0          19.2 VqET018G96
         K13S30L  C2013 09 30.30159 00 26 55.73 -17 12 40.2          19.3 RcET018854
         K13S30L  C2013 09 30.30881 00 26 54.41 -17 12 23.5          19.1 RcET018854
         K13S30L  C2013 09 30.30899 00 26 54.33 -17 12 23.6          19.2 VqET018G96
         K13S30L  C2013 09 30.31705 00 26 52.85 -17 12 01.7          19.4 VqET018G96
         K13S30L  C2013 09 30.33362 00 26 49.52 -17 11 18.7          19.6 RoET018926
         K13S30L  C2013 09 30.33698 00 26 48.86 -17 11 09.7          19.7 VoET018691
         K13S30L  C2013 09 30.34112 00 26 48.06 -17 10 59.4          19.6 RoET018926
         K13S30L  C2013 09 30.34440 00 26 47.37 -17 10 49.6          19.5 VoET018691
         K13S30L  C2013 09 30.35122 00 26 46.09 -17 10 32.8          19.6 RoET018926
         K13S30L  C2013 09 30.35182 00 26 45.94 -17 10 31.2          19.7 VoET018691
         K13S30L KC2013 09 30.97711 00 24 48.76 -16 43 31.5          19.7 RqET018113
         K13S30L KC2013 09 30.98329 00 24 47.65 -16 43 14.2          19.3 RqET018113
         K13S30L KC2013 09 30.98945 00 24 46.36 -16 42 58.5          19.4 RqET018113
         K13S30L KC2013 10 01.20679800 24 06.57 -16 33 36.1          19.4  rET018H21
         K13S30L KC2013 10 01.21353200 24 05.29 -16 33 18.7          19.5  rET018H21
         K13S30L KC2013 10 01.21800000 24 04.42 -16 33 07.7          19.6  rET018H21
         K13S30L  C2013 10 01.25707 00 23 57.29 -16 31 23.8          19.3 VqET018G96
         K13S30L  C2013 10 01.26230 00 23 56.30 -16 31 10.6          19.1 VqET018G96
         K13S30L  C2013 10 01.26754 00 23 55.31 -16 30 57.3          19.3 VqET018G96
         K13S30L  C2013 10 01.27278 00 23 54.32 -16 30 43.6          19.1 VqET018G96
         K13S30L KC2013 10 02.19771300 21 06.77 -15 51 11.2          19.9 VuET018H21
         K13S30L KC2013 10 02.20457800 21 05.50 -15 50 53.5          20.0 VuET018H21
         K13S30L KC2013 10 02.21192600 21 04.16 -15 50 35.0          20.1 VuET018H21
         K13S30L !C2013 10 02.24100 00 20 59.29 -15 49 19.6          17.8 RtET018673
         K13S30L !C2013 10 02.24347 00 20 58.80 -15 49 13.3          17.7 RtET018673
         K13S30L  C2013 10 02.85410 00 19 11.25 -15 23 24.0                qET018246
         K13S30L  C2013 10 02.85546 00 19 10.96 -15 23 20.6                qET018246
         K13S30L  C2013 10 02.85599 00 19 10.93 -15 23 18.5                qET018246
         K13S30L  C2013 10 03.23131 00 18 05.90 -15 07 29.3          19.3 VqET018G96
         K13S30L  C2013 10 03.23477 00 18 05.29 -15 07 20.5          19.4 VqET018G96
         K13S30L  C2013 10 03.23823 00 18 04.67 -15 07 11.8          19.4 VqET018G96
         K13S30L  C2013 10 03.24157 00 18 04.07 -15 07 03.3          19.3 VqET018G96
         K13S30L !C2013 10 03.26826 00 17 59.43 -15 05 57.1          19.8 RtET018673
         K13S30L !C2013 10 03.28467 00 17 56.46 -15 05 15.2          19.9 RtET018673
    
    Observer details:
    033 Karl Schwarzschild Observatory, Tautenburg.  Observer B. Stecklum.  1.34-m
        f/4 Schmidt + CCD.
    113 Volkssternwarte Drebach, Schoenbrunn.  Observer A. Knoefel.  0.5-m f/4.6
        reflector + CCD.
    246 Klet Observatory-KLENOT.  Observers M. Tichy, J. Ticha, M. Kocer,
        M. Honkova.  Measurer M. Tichy.  1.06-m KLENOT Telescope + CCD.
    673 Table Mountain Observatory, Wrightwood.  Observer J. Pittichova.
    691 Steward Observatory, Kitt Peak.  Observer J. V. Scotti.  0.9-m f/3
        reflector + CCD.
    703 Catalina Sky Survey.  Observer R. E. Hill.  Measurers A. Boattini,
        E. J. Christensen, A. R. Gibbs, A. D. Grauer, R. E. Hill, J. A. Johnson,
        R. A. Kowalski, S. M. Larson, F. C. Shelly.  0.68-m Schmidt + CCD.
    854 Sabino Canyon Observatory, Tucson.  Observer J. E. McGaha.  0.36-m f/10.0
        Schmidt-Cassegrain + CCD.
    926 Tenagra II Observatory.  Observers M. Schwartz, P. R. Holvorcem.  0.81-m
        f/7 Ritchey-Chretien + CCD.
    E23 Arcadia.  Observer A. Hidas.  0.35-m Schmidt-Cassegrain + CCD.
    G96 Mt. Lemmon Survey.  Observers R. A. Kowalski, J. A. Johnson.  Measurers
        A. Boattini, E. J. Christensen, A. R. Gibbs, A. D. Grauer, R. E. Hill,
        J. A. Johnson, R. A. Kowalski, S. M. Larson, F. C. Shelly.  1.5-m
        reflector + CCD.
    H21 Astronomical Research Observatory, Westfield.  Observer R. Holmes.
        Measurers S. Foglia, L. Buzzi, H. Devore, A. Kostin, T. Linder,
        T. Lister. T, T. Vorobjov.  0.61-m f/4.0 astrograph + CCD, 0.81-m f/4.0
        astrograph + CCD.
    K92 Sutherland-LCOGT B.  Observer T. Lister.  1.0-m f/8 Ritchey-Chretien + CCD.
    
    Orbital elements:
    2013 SL30                                                Earth MOID = 0.4660 AU
    Epoch 2013 Nov. 4.0 TT = JDT 2456600.5                  MPC
    M  30.47707              (2000.0)            P               Q
    n   0.23958208     Peri.  270.89445     +0.23078570     +0.96324908
    a   2.5674372      Node    14.81995     -0.53057874     +0.24298797
    e   0.5665960      Incl.   32.50162     -0.81561275     +0.11449043
    P   4.11           H   19.1           G   0.15           U   8
    Residuals in seconds of arc
    130929 703  0.4-  0.3+    130930 854  0.2-  0.8-    131001 G96  0.3-  0.3+
    130929 703  0.3+  1.0+    130930 G96  1.6+  0.5+    131001 G96  0.3-  0.0
    130929 703  0.2-  0.0     130930 854  1.0-  2.3+    131001 G96  0.3-  0.2-
    130929 703  0.5+  0.6-    130930 854  0.4+  0.1+    131001 G96  0.2-  0.0
    130929 703  0.1+  0.7+    130930 G96  0.3-  0.4-    131002 H21  0.0   0.1-
    130929 703  0.5+  1.2-    130930 G96  1.1+  0.5+    131002 H21  0.2-  0.1+
    130929 703  0.1-  0.1-    130930 926  0.2-  0.1+    131002 H21  0.1-  0.1-
    130929 703  0.5+  0.5-    130930 691  0.4-  0.4+    131002 673  0.2+  0.0
    130929 703  1.0-  0.3+    130930 926  0.1-  0.2-    131002 673  0.3-  0.0
    130929 E23  0.3+  0.3-    130930 691  1.0-  1.1+    131002 246  0.1+  0.2-
    130929 E23  0.8+  0.1-    130930 926  0.0   0.0     131002 246  0.6-  0.2-
    130929 E23  0.2+  1.6-    130930 691  0.7-  0.1+    131002 246  0.4+  0.5+
    130929 K92  0.2+  0.2-    130930 113  0.3-  1.2-    131003 G96  0.3+  0.1+
    130929 K92  0.0   0.2-    130930 113  0.7+  0.1+    131003 G96  0.4+  0.2+
    130929 K92  0.1+  0.2-    130930 113  1.0-  0.2-    131003 G96  0.3+  0.2+
    130929 033  1.3-  0.8+    131001 H21  1.1+  1.0-    131003 G96  0.2+  0.3+
    130929 033  0.1+  0.3+    131001 H21  1.1+  1.0-    131003 673  0.0   0.3-
    130930 G96  1.0+  0.0     131001 H21  0.7+  1.5-    131003 673  0.9-  0.3+
    
    Ephemeris:
    2013 SL30                a,e,i = 2.57, 0.57, 33                  q = 1.1127
    Date    TT    R. A. (2000) Decl.     Delta      r     Elong.  Phase     V
    2013 09 03    02 18 24.0 -35 33 13   0.4990  1.3554   124.5    37.8    19.8
    ...
    2013 09 18    01 12 49.0 -26 17 26   0.5048  1.4555   147.3    21.9    19.5
    ...
    2013 09 26    00 41 28.0 -20 22 30   0.5366  1.5116   157.2    14.9    19.5
    ...
    2013 10 02    00 21 42.1 -15 59 26   0.5750  1.5546   160.4    12.5    19.6
    2013 10 03    00 18 45.7 -15 17 04   0.5826  1.5618   160.4    12.4    19.6
    2013 10 04    00 15 55.3 -14 35 15   0.5906  1.5690   160.3    12.4    19.7
    ...
    2013 10 10    00 01 02.3 -10 38 12   0.6450  1.6127   157.2    13.9    20.0
    ...
    2013 10 18    23 46 36.0 -06 03 39   0.7339  1.6714   149.7    17.5    20.5
    ...
    2013 11 02    23 33 00.2 +00 30 58   0.9407  1.7820   134.4    23.5    21.3
    
    A. U. Tomatic                (C) Copyright 2013 MPC           M.P.E.C. 2013-T18
    

    Read MPEC 2013-T17 Read MPEC 2013-T19


    MPEC number:

    Enter an MPEC number in one of the following forms:

    • 1997-B01 (the full form)
    • J97B01 (the packed version of the full form)
    • B01 (the abbreviated form)